{"data":{"norad_id":43922,"intl_designator":"2019-002A","name":"IRIDIUM 180","alt_names":[],"object_type":"PAYLOAD","status":"ACTIVE","operator":null,"country":"US","launch_date":"2019-01-11","launch_site_code":"AFWTR","launch_vehicle":null,"mission":null,"orbit_class":"UNKNOWN","rcs_meters":null,"size_class":null,"mass_kg":null,"dimensions":null,"purposes":["comms"],"wikipedia_slug":null,"has_3d_model":false,"image_url":null,"decayed_at":null,"tle_current":{"epoch":"2026-05-25T02:41:46.932864Z","epoch_age_seconds":61335,"freshness":"FRESH","line1":"1 43922U 19002A   26145.11234876  .00000021  00000+0  51966-6 0  9997","line2":"2 43922  86.3986   3.2448 0002234  89.1758 270.9694 14.34217715385684","mean_motion":14.34217715,"eccentricity":0.0002234,"inclination_deg":86.3986,"raan_deg":3.2448,"arg_perigee_deg":89.1758,"mean_anomaly_deg":270.9694,"bstar":5.1966e-7,"rev_number":38568,"period_min":100.40316647462,"perigee_km":776.0686640974,"apogee_km":779.26587744558,"semimajor_km":7155.8042707715,"source":"CELESTRAK","updated_at":"2026-05-25T13:38:14.813687Z"}}}